Temp
13 13 12 12 12 12 13 13 13 13 13 12 11 12 11 11 11 11 11 11 10 11 11 11 10 10 10 9 9 8 8 8 9 9 9 9 9 10 11 13 14 15 16
13 13 12 12 12 12 12 12 13 13 12 11 11 11 11 10 10 10 10 10 10 10 10 10 10 10 10 9 8 8 8 8 8 8 8 8 8 8 9 11 13 14 15
13 13 12 12 11 11 12 12 12 12 12 10 10 10 10 9 9 9 9 9 9 9 9 8 8 8 9 8 8 7 7 7 7 7 7 7 7 7 8 8 9 11 13
12 12 12 11 11 11 12 12 11 11 10 9 9 9 9 9 8 8 8 8 8 8 7 7 7 7 7 7 7 7 7 7 6 6 6 6 7 7 7 7 8 8 10
11 12 11 10 10 11 11 10 10 10 9 8 8 8 8 8 8 7 7 7 7 7 7 6 5 5 5 5 6 6 6 6 6 6 6 6 6 6 7 7 7 7 7
11 11 11 10 10 10 10 9 9 8 8 8 7 7 7 7 7 6 6 6 6 6 6 5 5 4 4 4 4 4 5 5 5 5 5 5 5 5 6 6 6 6 6
11 11 11 10 10 10 9 9 8 8 7 7 7 6 5 5 5 5 5 5 5 5 5 4 4 4 4 3 3 3 3 4 4 5 4 5 5 5 5 5 6 6 6
11 11 11 10 10 10 9 8 8 7 7 7 7 6 3 4 4 4 4 4 4 4 3 3 3 3 3 2 1 1 1 2 3 3 4 4 4 4 4 5 5 5 5
10 10 10 10 10 9 9 8 8 8 7 6 7 6 3 4 3 3 3 3 3 3 2 2 2 2 2 2 1 0 0 0 1 2 3 3 4 4 4 4 4 4 5
10 10 10 9 9 9 8 8 7 7 7 6 5 5 5 5 2 2 2 2 2 2 2 1 1 1 1 1 0 -0 -1 0 -0 1 2 2 3 3 3 3 4 4 4
9 9 9 9 9 8 8 7 7 7 6 6 5 4 4 3 3 2 2 2 2 1 1 1 0 0 0 0 -0 -1 -1 0 -1 -0 1 1 2 2 2 3 3 3 3
9 9 8 8 8 8 7 6 6 6 6 5 5 4 4 3 2 2 0 -0 -0 1 1 0 0 -0 -0 -1 -1 -2 -1 -0 -1 -1 -0 -0 0 1 1 2 2 2 3
9 8 8 7 7 6 6 6 6 5 5 5 4 4 3 3 2 1 1 -0 -0 0 1 0 -0 -0 -1 -1 -1 -2 -1 -1 -1 -2 -1 -1 -1 -0 -0 0 1 1 1
10 9 8 7 7 6 5 5 5 4 4 4 3 3 3 2 2 2 1 0 -1 -1 -1 -0 -0 -1 -1 -2 -2 -2 -1 -1 -2 -2 -2 -2 -2 -1 -1 -1 -1 -0 0
9 9 8 7 6 6 5 4 4 4 3 3 3 2 2 2 1 1 1 0 -0 -1 -1 -1 -1 -1 -2 -2 -2 -2 -2 -2 -2 -2 -3 -3 -3 -2 -2 -2 -2 -1 -1
9 9 8 7 6 5 5 4 4 3 3 3 2 2 2 1 1 1 0 0 -0 -1 -1 -1 -1 -2 -2 -2 -3 -3 -2 -2 -2 -3 -3 -3 -2 -3 -3 -3 -2 -2 -2
10 9 8 7 6 6 5 4 4 3 3 2 2 2 1 1 1 0 -0 -0 -0 -1 -2 -2 -2 -2 -2 -3 -3 -3 -3 -3 -3 -3 -4 -4 -2 -2 -3 -3 -3 -3 -2
10 9 8 7 6 5 4 4 4 3 3 2 2 1 1 1 0 -0 -0 -0 -1 -1 -2 -3 -3 -3 -3 -4 -5 -4 -4 -4 -4 -4 -5 -4 -3 -3 -3 -4 -4 -3 -3
9 8 8 7 6 5 4 4 3 3 2 2 2 1 1 0 0 -0 -0 -1 -1 -1 -2 -3 -4 -4 -5 -5 -5 -5 -6 -5 -5 -4 -4 -4 -4 -4 -5 -4 -4 -4 -3
10 8 7 7 5 5 4 4 3 3 2 2 1 1 1 0 -0 -0 -0 -1 -1 -2 -3 -4 -4 -5 -5 -6 -6 -7 -7 -7 -6 -5 -5 -5 -5 -5 -5 -4 -4 -4 -4
9 8 6 5 4 5 4 4 3 3 2 1 1 1 1 0 -1 -1 -1 -1 -2 -2 -3 -4 -5 -6 -6 -7 -8 -8 -8 -8 -8 -6 -6 -7 -5 -5 -5 -5 -5 -5 -5
8 8 6 5 4 4 4 4 3 3 2 1 1 1 0 -0 -1 -1 -1 -2 -2 -3 -4 -5 -6 -7 -7 -7 -7 -8 -8 -8 -8 -7 -8 -8 -8 -7 -6 -6 -6 -6 -6
8 7 6 4 4 4 4 4 3 2 2 1 1 0 -0 -1 -2 -2 -2 -3 -3 -4 -4 -5 -6 -6 -7 -7 -8 -8 -8 -8 -8 -8 -8 -8 -8 -8 -7 -6 -5 -6 -7
8 7 6 5 4 4 4 3 3 2 2 1 0 0 -0 -1 -2 -2 -3 -3 -4 -5 -5 -6 -6 -6 -7 -7 -7 -8 -8 -8 -8 -9 -9 -9 -8 -9 -9 -8 -6 -7 -7
6 7 7 5 4 4 4 3 2 2 1 1 0 -0 -1 -1 -2 -3 -3 -4 -5 -5 -5 -6 -6 -7 -7 -7 -7 -7 -8 -8 -9 -9 -9 -10 -9 -10 -9 -9 -7 -7 -7
7 6 6 5 5 5 4 3 2 2 1 1 -0 -1 -1 -1 -2 -3 -4 -4 -5 -5 -6 -6 -6 -6 -7 -7 -7 -7 -8 -9 -9 -9 -9 -9 -10 -10 -9 -9 -9 -8 -9
Height
876 876 875 873 874 874 874 875 876 876 876 877 879 880 880 881 882 882 884 884 883 884 883 882 880 880 879 879 879 878 875 872 871 868 865 862 860 856 855 856 857 856 856
877 876 876 875 875 875 876 878 877 878 879 880 881 883 884 885 885 885 885 885 885 886 886 886 884 883 883 882 882 881 879 876 873 871 869 866 863 859 857 856 856 855 855
877 877 877 877 876 877 877 878 878 879 880 881 882 885 886 887 887 887 888 888 887 887 888 888 887 886 886 885 884 882 881 879 877 874 872 869 867 864 861 858 856 855 855
879 879 878 878 879 878 878 877 879 879 881 883 885 887 888 889 890 889 889 890 890 890 890 890 889 889 888 887 886 885 883 882 880 877 874 873 870 868 865 861 859 856 854
879 879 878 879 881 881 880 880 881 881 884 887 890 892 893 894 894 894 893 892 892 892 891 891 891 890 890 890 889 887 886 884 882 880 878 875 872 871 868 865 861 857 858
880 881 881 881 882 883 883 883 884 887 887 889 892 895 897 898 898 897 896 895 895 894 893 892 892 891 891 891 891 889 888 886 884 882 880 876 874 873 870 867 864 862 858
881 882 883 884 884 884 885 886 886 890 893 894 894 898 900 900 900 900 900 899 898 897 896 894 893 893 892 891 892 890 889 887 885 883 880 879 877 875 873 870 868 865 861
883 884 885 885 885 885 887 888 888 890 892 894 895 897 901 903 903 902 902 901 900 899 898 897 896 895 894 893 892 891 888 887 886 885 883 881 879 876 874 873 871 868 865
883 884 885 886 886 886 887 888 889 890 891 894 894 895 899 899 901 903 903 902 902 901 899 898 897 897 895 894 892 891 889 887 886 885 884 882 881 878 876 874 872 870 868
883 882 884 886 887 887 888 888 889 890 891 892 894 894 895 895 897 901 902 902 902 901 900 899 898 898 897 895 893 892 890 887 886 885 884 883 882 880 877 875 873 872 870
883 883 884 886 887 887 888 889 889 889 891 892 893 895 896 898 898 897 899 900 901 901 900 899 898 898 898 895 893 891 890 887 885 885 883 882 882 880 878 876 875 873 872
881 883 884 885 885 887 889 889 889 891 892 892 893 893 894 895 897 898 898 899 899 899 900 899 898 897 897 895 893 892 889 886 884 883 882 881 880 879 878 876 875 874 872
879 881 883 884 885 887 889 890 889 889 891 892 893 893 893 894 896 897 897 898 899 898 898 898 898 897 896 894 892 890 888 885 883 881 880 879 878 877 876 875 873 872 871
876 878 880 881 883 885 886 886 887 888 889 891 893 894 893 894 895 895 895 897 898 898 897 897 897 896 895 893 891 888 886 883 881 879 878 877 875 874 873 872 871 870 870
872 873 875 877 880 882 885 887 888 887 887 889 889 892 893 894 895 896 895 895 896 897 897 896 896 895 893 891 889 886 883 881 879 878 876 874 873 872 870 869 868 868 867
865 867 870 873 877 879 882 883 884 884 885 887 887 888 889 892 893 894 895 894 895 896 897 895 894 893 891 890 887 884 881 879 877 875 873 871 869 868 868 867 865 864 863
859 861 864 869 871 872 874 878 881 883 885 887 887 886 887 888 890 892 893 894 894 894 894 893 892 890 889 887 884 882 879 877 874 872 871 869 867 865 864 863 862 861 860
853 857 861 863 869 872 876 876 879 880 882 882 884 886 887 887 886 887 890 892 892 893 892 891 890 888 886 884 882 879 877 875 872 869 868 866 864 863 862 861 860 858 857
851 855 859 864 866 869 871 873 874 876 879 879 880 882 884 885 885 883 886 888 888 890 890 889 888 886 883 881 878 876 874 872 870 867 864 862 861 860 859 858 856 855 853
844 849 854 857 863 864 867 867 870 871 874 877 878 879 879 880 881 880 881 883 884 885 887 886 885 883 881 879 877 874 871 869 866 864 862 860 858 856 855 853 852 851 849
840 844 847 854 855 858 859 862 865 865 869 872 874 874 876 876 877 878 877 879 880 881 883 883 883 881 879 877 876 874 871 867 863 861 858 856 853 851 850 849 848 847 845
830 836 839 843 847 851 855 857 860 860 863 865 867 868 871 872 872 874 875 875 876 877 878 879 879 878 876 876 875 873 870 866 862 861 857 854 853 849 847 844 842 841 840
824 828 832 837 840 844 848 851 853 855 858 861 863 864 865 866 867 869 870 873 873 873 873 874 874 873 872 872 872 870 868 866 864 861 858 849 850 847 844 839 836 833 832
815 821 825 828 830 836 840 844 849 851 852 854 858 862 863 863 865 865 864 868 869 869 869 870 869 869 868 868 868 868 866 863 860 858 857 848 845 843 840 835 831 829 828
808 811 814 819 824 829 834 837 841 846 848 851 852 853 857 858 858 859 859 861 864 864 864 865 865 865 865 865 865 864 863 861 857 852 852 849 842 839 835 829 826 824 823
799 804 807 813 817 823 826 831 834 838 840 841 845 848 850 853 856 854 854 855 858 858 859 860 860 861 861 860 860 860 859 858 856 851 848 847 842 839 830 826 824 822 817
Wind_Speed
16 15 16 17 17 15 15 15 16 17 19 21 22 22 22 23 23 23 22 19 19 20 19 18 20 22 23 22 23 24 23 24 22 25 26 27 27 21 14 7 6 12 14
15 15 15 17 17 15 13 13 13 15 19 23 25 22 22 22 21 20 18 17 17 19 18 16 17 17 18 20 21 22 22 23 23 23 24 24 25 25 25 15 6 5 13
13 13 15 16 16 13 11 11 12 15 21 25 24 22 22 22 21 19 18 17 17 19 17 16 17 17 15 16 19 20 21 21 21 22 23 24 23 24 23 26 26 22 6
12 13 14 16 13 12 10 11 14 20 24 25 27 26 25 23 21 19 18 17 17 17 18 17 17 18 18 18 17 18 19 19 19 20 21 22 23 23 23 22 24 26 25
11 12 15 15 13 14 15 16 20 25 29 29 27 25 23 21 19 17 18 17 16 14 13 15 18 18 17 17 17 17 18 18 18 19 20 20 21 22 23 23 23 23 25
10 10 13 14 14 15 18 18 24 26 28 28 27 25 22 19 17 18 17 16 15 13 12 12 11 15 16 17 16 17 17 17 17 17 19 19 19 20 22 23 24 24 24
9 8 10 12 13 15 18 18 24 26 28 26 22 21 18 15 15 16 15 16 15 15 13 12 12 13 14 15 16 17 17 16 16 16 18 18 17 18 19 20 22 23 24
8 7 8 9 10 13 15 18 21 22 14 9 4 5 2 4 12 14 13 13 13 12 13 13 12 13 14 14 15 16 17 16 15 15 15 16 16 16 17 17 19 20 21
7 7 6 7 8 9 12 13 12 13 9 5 4 3 2 2 4 5 12 11 10 10 11 10 11 12 12 13 14 16 17 17 15 14 13 14 14 14 15 16 16 17 19
7 6 5 4 6 7 8 9 9 8 8 9 7 8 5 3 2 2 3 7 8 7 8 9 9 10 11 13 14 14 16 15 14 14 12 12 12 13 14 14 15 15 15
7 5 5 4 4 5 5 6 7 7 6 6 5 5 5 6 4 2 2 0 3 6 7 7 9 9 12 13 14 15 16 15 13 13 12 11 11 12 12 12 13 13 13
9 7 6 6 6 5 5 5 5 5 5 5 6 6 5 3 2 3 2 1 2 1 1 5 6 10 14 15 15 15 17 15 12 12 11 11 12 11 11 11 12 12 13
15 12 8 7 6 6 7 6 5 5 4 4 4 5 5 5 4 3 3 1 1 2 2 2 3 10 16 16 16 16 18 15 11 11 11 11 13 12 11 12 11 12 12
15 13 11 9 9 9 9 10 8 6 5 4 4 3 3 3 1 1 1 1 0 1 2 2 2 8 15 16 18 18 18 14 12 10 10 11 13 14 13 12 12 11 12
19 16 14 13 12 11 10 10 9 8 7 7 7 5 3 3 1 0 2 3 1 0 1 1 3 11 15 17 20 20 19 15 12 10 10 12 13 14 13 13 13 12 12
24 21 19 16 15 13 12 12 12 11 10 10 9 8 7 6 5 4 3 3 3 3 2 3 8 13 16 18 20 21 18 14 12 11 10 13 15 15 12 12 13 14 15
28 25 21 19 19 17 17 15 14 13 12 11 10 9 9 8 8 7 6 6 6 6 6 9 11 15 17 21 21 21 17 16 14 11 11 16 16 15 14 12 13 14 15
30 28 24 21 20 18 18 16 16 15 16 14 12 11 10 10 10 9 9 10 10 10 11 11 14 15 18 19 21 19 18 15 15 16 14 15 14 12 12 13 14 15 16
31 28 24 22 21 20 21 19 18 16 16 15 14 12 12 13 12 12 12 12 13 12 12 12 11 14 16 19 22 18 18 18 17 17 15 12 11 12 14 15 15 16 17
33 31 28 25 23 22 24 21 21 18 17 16 14 12 12 14 14 12 12 12 12 12 11 10 13 15 16 17 16 16 18 19 22 18 12 17 18 18 16 15 14 17 20
34 32 29 28 23 26 26 25 23 18 20 18 16 14 13 14 13 12 13 13 12 11 10 10 10 12 14 14 12 15 15 18 19 13 18 24 26 24 20 18 22 26 22
36 34 33 29 29 30 27 24 23 20 22 21 19 15 14 13 13 12 12 12 11 11 10 9 9 10 8 10 12 15 15 16 11 7 26 24 21 24 22 28 27 22 22
37 36 34 29 28 31 28 27 24 22 22 22 20 17 15 15 15 15 13 12 11 11 10 10 12 10 8 8 11 14 15 14 16 19 21 22 17 17 23 27 29 27 26
38 39 34 33 32 33 29 27 25 24 23 22 20 17 16 16 17 16 14 14 14 12 11 12 13 10 9 8 10 13 15 18 22 20 16 17 14 18 22 33 28 21 19
37 38 38 36 33 33 29 27 25 26 25 24 22 21 19 17 18 17 16 17 16 15 12 11 11 10 10 11 12 14 15 15 15 18 17 10 15 26 23 25 21 16 19
40 36 36 35 32 33 29 27 26 26 26 27 26 23 20 19 18 16 18 17 18 17 13 12 12 11 11 12 12 13 14 13 14 12 7 15 22 19 9 16 12 28 28
Wind_Direction
83 79 78 81 83 82 82 92 96 110 116 118 118 114 109 108 107 103 97 85 77 66 63 61 66 66 61 55 42 37 38 40 35 34 34 35 37 49 51 30 259 249 230
80 77 80 80 81 75 77 87 101 105 121 125 119 112 110 109 108 104 100 93 78 73 70 67 57 54 53 51 41 37 38 36 37 36 32 30 31 33 38 48 50 16 244
83 85 87 82 78 76 79 90 110 117 124 130 124 116 114 111 107 100 94 88 86 88 75 70 60 59 55 48 42 37 35 38 38 36 32 32 30 31 32 38 38 49 90
83 86 85 85 86 87 83 98 122 127 127 127 120 116 115 112 105 99 93 87 83 85 81 71 67 62 57 51 43 37 36 34 33 33 33 33 32 32 32 34 35 35 39
87 85 87 86 84 81 79 94 118 126 122 116 113 110 107 103 97 91 84 85 86 91 92 82 72 65 57 49 43 39 34 34 33 31 31 33 33 31 33 33 32 30 26
84 84 85 85 84 84 85 104 119 122 121 119 112 102 99 95 90 82 80 85 90 94 95 90 78 68 56 49 43 39 33 32 32 31 30 31 32 32 32 33 33 29 23
90 92 91 87 84 92 96 114 121 122 116 114 107 97 91 91 85 78 78 84 88 89 90 85 74 60 48 47 44 34 33 32 28 27 27 28 30 31 31 30 30 31 28
96 96 92 87 85 92 111 128 135 135 129 150 142 132 150 101 78 77 75 78 84 88 85 78 69 54 41 41 39 32 29 29 26 23 21 22 24 27 29 26 26 28 30
118 112 99 100 99 94 107 121 145 164 150 99 184 176 122 198 148 108 74 76 82 86 84 72 58 46 34 27 28 24 23 23 25 24 21 21 21 22 24 26 24 25 27
137 128 122 123 108 104 104 106 115 139 154 145 102 88 97 135 156 165 156 77 71 84 78 67 55 40 28 24 18 22 15 14 23 22 22 22 19 18 19 20 20 19 19
162 146 144 150 145 130 119 117 117 115 128 127 147 140 107 84 81 121 161 18 106 75 73 66 53 37 18 11 14 2 1 2 11 17 20 20 18 15 14 13 12 11 11
181 178 177 179 165 159 160 144 122 115 115 114 108 111 130 141 104 91 100 327 320 124 114 76 50 27 5 0 0 353 351 353 359 6 13 17 14 13 11 8 7 7 7
201 194 196 193 183 180 178 169 152 143 137 133 131 116 98 94 100 103 119 158 302 301 164 187 15 1 360 359 1 352 349 348 351 354 2 2 8 8 5 4 3 2 3
209 199 199 200 200 194 188 187 177 167 163 162 160 144 134 131 91 56 106 106 113 279 282 255 277 347 357 360 354 346 346 345 342 340 352 354 356 355 355 358 359 356 355
209 206 206 206 201 198 197 195 192 186 179 181 184 189 186 176 178 205 316 323 152 327 276 235 333 338 344 348 349 345 343 342 337 332 334 343 347 345 347 349 352 351 347
211 211 210 204 203 199 201 203 203 202 198 194 193 195 193 204 204 216 261 265 236 216 260 257 313 331 338 339 343 340 340 337 332 324 329 332 330 334 336 339 344 342 341
215 213 211 210 206 203 202 204 206 210 209 206 207 206 209 213 210 224 238 233 233 245 253 293 306 324 329 337 337 340 341 341 335 332 327 325 324 323 324 323 331 337 337
218 216 211 210 212 209 211 207 210 210 212 210 213 216 224 217 218 226 236 236 241 251 266 280 301 317 326 335 336 339 342 345 334 324 327 325 322 318 319 323 321 327 327
220 213 213 215 212 218 213 213 217 214 216 217 217 221 226 228 231 230 236 240 239 250 265 272 295 311 322 333 336 340 343 344 344 343 340 343 340 329 320 318 314 316 321
217 214 212 214 224 218 219 216 217 215 217 219 221 226 234 236 235 230 232 234 235 247 251 268 293 311 323 332 340 340 337 342 338 344 352 342 334 329 322 314 306 311 317
218 214 213 215 220 219 217 216 219 218 218 217 220 231 243 244 236 235 232 231 229 232 244 264 284 305 320 334 343 337 328 331 338 348 338 336 334 332 328 323 314 315 312
216 212 210 216 217 220 221 220 223 221 217 218 222 230 243 236 232 227 226 227 235 234 244 257 278 290 297 320 332 334 333 337 341 343 327 319 321 317 314 312 312 308 309
216 216 215 217 225 223 223 221 221 224 221 223 226 230 233 230 225 222 222 234 238 244 255 272 281 283 279 313 319 325 329 322 309 316 323 310 316 307 313 313 314 311 309
219 218 219 224 223 224 221 219 222 223 222 225 227 234 237 236 229 222 224 236 242 245 259 273 284 283 278 299 301 304 312 309 309 313 328 299 320 315 315 313 316 308 306
222 224 225 226 223 223 221 218 218 222 225 229 229 230 234 235 227 224 230 235 240 250 262 274 271 273 276 280 282 290 297 307 309 309 319 284 314 315 311 312 319 315 309
228 228 227 228 228 225 221 219 219 223 225 228 230 231 232 235 232 230 235 230 240 255 260 268 253 256 268 276 278 281 289 288 298 309 320 316 312 322 309 300 295 299 311